Location: Moscow
(55.7500°N, 37.5830°E)
Time: 02:11:11
(UTC+03:00)

N. Korean satellite - Pass Details

Date: 28 February 2021
Orbit: 452 x 499 km, 97.2° (Epoch: 22 April)

Event Time Altitude Azimuth Distance (km) Brightness Sun altitude
Rises 05:00:59 0° 26° (NNE) 2,508 10.8 -20.6°
Reaches altitude 10° 05:03:35 10° 48° (NE) 1,635 10.2 -20.3°
Maximum altitude 05:05:57 17° 90° (E) 1,268 9.6 -20.0°
Drops below altitude 10° 05:08:20 10° 133° (SE) 1,643 9.6 -19.6°
Sets 05:10:57 0° 154° (SSE) 2,527 10.3 -19.3°
